User: anonymous   Login
Location: Bishop�s Knoyle
(51.0728°N, 2.1714°W)
Time: 01:50:50
(UTC+00:00)
Language:

Cosmos 1975 Rocket - Orbit

View from above orbital plane
View from above orbital plane
View from above satellite
View from above satellite

Ground track
Ground track

The orbit data is extracted from the following two-line orbital elements,

1 19574U 88093B   20338.96660615  .00000138  00000-0  13890-4 0  9996
2 19574  82.5338  41.5384 0020057 262.5055 270.9152 14.83347474737087
Epoch (UTC): 03 December 2020 23:11:54
Eccentricity: 0.0020057
inclination: 82.5338°
perigee height: 605 km
apogee height: 633 km
right ascension of ascending node: 41.5384°
argument of perigee: 262.5055°
revolutions per day: 14.83347474
mean anomaly at epoch: 270.9152°
orbit number at epoch: 73708

The dashed part of the orbit path shows where the satellite is in the earth's shadow,  

DLR